Starlink 3270

operational
NORAD ID: 50199 Int'l Des: 2021-125 Owner: SPXS Country: US Constellation: starlink
LEOCIRCULAR

Starlink 3270について

説明を読み込み中...

リアルタイム位置

3D地球を読み込み中...

次回通過

高度履歴

Altitude vs Time

uPlot chart will show altitude changes over time

軌道要素

1 50199U 21125AV 25353.97268493 -.00000969 00000-0 -42793-4 0 9996
2 50199 53.2161 236.9839 0001323 100.4195 259.6947 15.08834635224691
Epoch: Dec 19, 2025 • Age: 21 hours

現在のステータス

高度 541.8 km
速度 7.60 km/s
衛星直下点 34.51°N, 128.97°W
打ち上げ日 Dec 18, 2021
運用期間 4 years
タイプ internet

技術仕様

分類 Payload
質量 290.00 kg
乾燥質量 270.00 kg
総質量 290.00 kg
長さ 0.20 m
直径 2.80 m
スパン 9.00 m
形状 Box + pan
製造者 SPXS
バスタイプ Starlink
フェーズステータス In Orbit
所有者/国 SPXS/US

大規模コンステレーション

Loading constellations...